This is the latest recevied weather packets stored in our database for station/object W4TJP. If no packets are shown the sender has not sent any weather packets the latest 10 day(s).
| Time | Temp. | Humidity | Pressure | Rain* | Wind** | Luminosity | Snow |
|---|---|---|---|---|---|---|---|
| 1777139664 | 24.44° C | 65% | 1010 hPa | 0 mm | - | 770 W/m² | - |
| 1777139359 | 23.89° C | 66% | 1010.3 hPa | 0 mm | - | 360 W/m² | - |
| 1777139055 | 23.89° C | 67% | 1010.2 hPa | 0 mm | - | 497 W/m² | - |
| 1777138753 | 24.44° C | 66% | 1010.1 hPa | 0 mm | - | 306 W/m² | - |
| 1777138453 | 23.89° C | 70% | 1010.2 hPa | 0 mm | - | 556 W/m² | - |
| 1777138149 | 22.78° C | 67% | 1010 hPa | 0 mm | - | 323 W/m² | - |
| 1777137845 | 22.78° C | 70% | 1010.2 hPa | 0 mm | - | 233 W/m² | - |
| 1777137541 | 22.78° C | 70% | 1010.3 hPa | 0 mm | - | 202 W/m² | - |
| 1777137239 | 22.78° C | 70% | 1010.3 hPa | 0 mm | - | 144 W/m² | - |
| 1777136936 | 22.78° C | 70% | 1010.4 hPa | 0 mm | - | 149 W/m² | - |
| 1777136632 | 23.33° C | 67% | 1010.4 hPa | 0 mm | - | 154 W/m² | - |
| 1777136329 | 24.44° C | 68% | 1010.3 hPa | 0 mm | - | 251 W/m² | - |
| 1777136027 | 23.89° C | 65% | 1010.4 hPa | 0 mm | - | 271 W/m² | - |
| 1777135722 | 23.89° C | 65% | 1010.5 hPa | 0 mm | - | 203 W/m² | - |
| 1777135418 | 23.89° C | 66% | 1010.5 hPa | 0 mm | - | 290 W/m² | - |
| 1777135115 | 23.89° C | 67% | 1010.6 hPa | 0 mm | - | 789 W/m² | - |
| 1777134813 | 22.78° C | 67% | 1010.3 hPa | 0 mm | - | 689 W/m² | - |
| 1777134508 | 22.78° C | 68% | 1010.2 hPa | 0 mm | - | 255 W/m² | - |
| 1777134205 | 22.78° C | 69% | 1010.4 hPa | 0 mm | - | 205 W/m² | - |
| 1777133902 | 22.78° C | 67% | 1010.4 hPa | 0 mm | - | 227 W/m² | - |
| 1777133598 | 22.78° C | 67% | 1010.5 hPa | 0 mm | - | 608 W/m² | - |
| 1777133297 | 22.22° C | 70% | 1010.6 hPa | 0 mm | - | 310 W/m² | - |
| 1777132997 | 22.22° C | 71% | 1010.6 hPa | 0 mm | - | 495 W/m² | - |
| 1777132694 | 22.78° C | 69% | 1010.2 hPa | 0 mm | - | 188 W/m² | - |
| 1777132390 | 23.33° C | 68% | 1010.7 hPa | 0 mm | - | 215 W/m² | - |
* Rain latest hour (hover to see other rain measurements)
** Current wind speed in m/s (hover to see current wind gust speed)